Weather History for Dayton Wright, OH

Change the Weather History Date:

Wednesday, May 15, 2013

  Actual Average (KFFO) Record (KFFO)
Temperature  
Mean Temperature 75 °F -  
Max Temperature 86 °F 71 °F 86 °F (1998)
Min Temperature 66 °F 49 °F 39 °F (2006)
Cooling Degree Days 10    
Growing Degree Days 25 (Base 50)    
Moisture  
Dew Point 56 °F    
Average Humidity 50    
Maximum Humidity 70    
Minimum Humidity 36    
Precipitation  
Precipitation 0.00 in - - ()
Sea Level Pressure  
Sea Level Pressure 29.83 in    
Wind  
Wind Speed 12 mph (SW)    
Max Wind Speed 20 mph    
Max Gust Speed 30 mph    
Visibility 10 miles    
Events      
Averages and records for this station are not official NWS values.
T = Trace of Precipitation, MM = Missing Value Source: NWS Daily Summary

Daily Weather History Graph

Daily Weather History Graph

Search for Another Location

Airport:

Trip Planner

Search our weather history database for the weather conditions in past years. The results will help you decide how hot, cold, wet, or windy it might be!

Date:

Astronomy

May. 15, 2013 Rise Set
Actual Time 6:22 AM EDT 8:44 PM EDT
Civil Twilight 5:52 AM EDT 9:15 PM EDT
Nautical Twilight 5:14 AM EDT 9:52 PM EDT
Astronomical Twilight 4:33 AM EDT 10:34 PM EDT
Moon 10:57 AM EDT (5/15) 12:30 AM EDT (5/15)
Length of Visible Light 15h 23m
Length of Day
14h 22m
Waxing Crescent, 26% of the Moon is Illuminated
May 15
Waxing Crescent
May 18
First Quarter
May 25
Full
May 31
Last Quarter
Jun 8
New

Hourly Weather History & Observations

Time (EDT) Temp. Heat Index Dew Point Humidity Pressure Visibility Wind Dir Wind Speed Gust Speed Precip Events Conditions
12:53 AM 72.0 °F - 57.0 °F 59% 29.83 in 10.0 mi SW 12.7 mph - N/A   Clear
1:53 AM 72.0 °F - 55.9 °F 57% 29.83 in 10.0 mi SW 10.4 mph - N/A   Clear
2:53 AM 70.0 °F - 55.9 °F 61% 29.82 in 10.0 mi SSW 9.2 mph - N/A   Clear
3:53 AM 68.0 °F - 57.0 °F 68% 29.82 in 10.0 mi SSW 8.1 mph - N/A   Clear
4:53 AM 66.9 °F - 57.0 °F 70% 29.82 in 10.0 mi SSW 9.2 mph - N/A   Clear
5:53 AM 66.9 °F - 57.0 °F 70% 29.82 in 10.0 mi SSW 10.4 mph - N/A   Clear
6:53 AM 68.0 °F - 57.0 °F 68% 29.83 in 10.0 mi SW 11.5 mph - N/A   Clear
7:53 AM 70.0 °F - 57.0 °F 63% 29.84 in 10.0 mi SW 12.7 mph - N/A   Clear
8:53 AM 73.0 °F - 55.9 °F 55% 29.85 in 10.0 mi WSW 15.0 mph 23.0 mph N/A   Clear
9:53 AM 75.9 °F - 57.0 °F 52% 29.86 in 10.0 mi SW 13.8 mph 21.9 mph N/A   Clear
10:53 AM 80.1 °F 80.2 °F 55.9 °F 43% 29.86 in 10.0 mi WSW 15.0 mph 21.9 mph N/A   Clear
11:53 AM 80.1 °F 80.2 °F 55.9 °F 43% 29.86 in 10.0 mi WSW 16.1 mph 24.2 mph N/A   Clear
12:53 PM 82.0 °F 81.7 °F 57.0 °F 42% 29.85 in 10.0 mi SW 19.6 mph 28.8 mph N/A   Clear
1:53 PM 84.9 °F 83.6 °F 55.0 °F 36% 29.85 in 10.0 mi West 19.6 mph 27.6 mph N/A   Clear
2:53 PM 84.9 °F 83.7 °F 55.9 °F 37% 29.83 in 10.0 mi SW 15.0 mph 24.2 mph N/A   Clear
3:53 PM 84.9 °F 83.9 °F 57.0 °F 38% 29.81 in 10.0 mi WSW 18.4 mph 29.9 mph N/A   Clear
4:53 PM 84.9 °F 83.7 °F 55.9 °F 37% 29.80 in 10.0 mi SW 17.3 mph 26.5 mph N/A   Clear
5:53 PM 84.9 °F 83.7 °F 55.9 °F 37% 29.80 in 10.0 mi West 13.8 mph 25.3 mph N/A   Clear
6:53 PM 82.9 °F 82.1 °F 55.9 °F 39% 29.80 in 10.0 mi WSW 13.8 mph 20.7 mph N/A   Clear
7:53 PM 81.0 °F 80.8 °F 55.9 °F 42% 29.81 in 10.0 mi WSW 9.2 mph - N/A   Clear
8:53 PM 80.1 °F 80.2 °F 55.9 °F 43% 29.82 in 10.0 mi SW 9.2 mph - N/A   Clear
9:53 PM 78.1 °F - 55.9 °F 46% 29.83 in 10.0 mi SW 9.2 mph - N/A   Clear
10:53 PM 75.9 °F - 55.0 °F 48% 29.84 in 10.0 mi SW 6.9 mph - N/A   Partly Cloudy
11:53 PM 75.0 °F - 54.0 °F 48% 29.82 in 10.0 mi SW 9.2 mph - N/A   Scattered Clouds